"Pseudo-MPEC" for P10TSf4

Created 2019 Nov 13 10:07:08 UT using Find_Orb

Click here for an explanation of pseudo-MPECs

 
 Astrometry: 
     P10TSf4  C2019 11 02`mf7[OXmM09e\aWx)1RK?yyRjL8]mOBAstrometry-eoq*c6FiLbF51
     P10TSf4  C2019 11 02!Jkq\xB^=u]oecaIVjgxR-HIredacted;71`7clickThere2yU7EF51
     P10TSf4  C2019 11 02LsCHW:Dnfor0/WK2hTfna4qexplanationREWiTDic546.18?K\gF51
     P10TSf4 KC2019 11 04.25802 22 39 49.89 +37 28 50.9    ~B47q 21.5 RoNEOCP291
     P10TSf4 KC2019 11 04.27350 22 39 49.34 +37 28 54.7    ~B47q 21.1 RoNEOCP291
     P10TSf4 KC2019 11 04.28899 22 39 48.75 +37 28 58.6    ~B47q       oNEOCP291

Station data:
(291) LPL/Spacewatch II  (N31.961669 W111.599905)  US/Arizona.  Observers J.
   V. Scotti, R. S. McMillan. 1.8-m f/2.7 reflector + CCD.
(F51) Pan-STARRS 1, Haleakala  (N20.707235 W156.255910)  US/Hawaii.
   Observers N. Primak, A. Schultz, S. Watters, J. Thiel, T. Goggia. Measurer
   PS1 Science Consortium. 1.8-m Ritchey-Chrétien + CCD.

Orbital elements:  P10TSf4
   Perihelion 2019 Dec 13.777468 +/- 61.9 TT = 18:39:33 (JD 2458831.277468)
Epoch 2019 Nov  4.0 TT = JDT 2458791.5   Earth MOID: 0.5530   AutoNEOCP
M 344.67655487 +/- 19               (J2000 ecliptic)
n   0.38522927 +/- 0.232            Peri.   73.11315 +/- 53
a   1.87063846 +/- 0.752            Node   342.73312 +/- 12
e   0.2418384 +/- 0.262             Incl.   23.34207 +/- 9
P   2.56/934.49d           H 20.9   G  0.15   U 11.8  SR
q 1.41824608 +/- 0.354    Q 2.32303085 +/- 23.6
From 6 observations 2019 Nov. 2-4; mean residual 0".24
Residuals in arcseconds: 
191102 F51  .39-  .02+    191102 F51  .53+  .07+    191104 291  .19+  .05-    
191102 F51  .13-  .09-    191104 291  .32-  .15-    191104 291  .13+  .20+    

Ephemerides (geocentric):
Date (UTC) HH   RA              Dec         delta   r     elong  mag " sig PA
---- -- -- --  -------------   -----------  ------ ------ -----  --- ---- ---
2019 11 13 10  22 38 00.956   +38 05 36.80  .67639 1.4344 117.6 22.3  545  10
2019 11 13 11  22 38 01.352   +38 05 46.08  .67658 1.4344 117.6 22.3  549  10
2019 11 13 12  22 38 01.756   +38 05 55.36  .67677 1.4343 117.6 22.3  553  10
2019 11 13 13  22 38 02.168   +38 06 04.64  .67697 1.4343 117.5 22.3  557  10
2019 11 13 14  22 38 02.587   +38 06 13.92  .67716 1.4343 117.5 22.3  561  10
2019 11 13 15  22 38 03.014   +38 06 23.19  .67735 1.4342 117.5 22.3  565   9
2019 11 13 16  22 38 03.449   +38 06 32.46  .67754 1.4342 117.5 22.3  569   9
2019 11 13 17  22 38 03.892   +38 06 41.73  .67773 1.4341 117.4 22.3  573   9
2019 11 13 18  22 38 04.343   +38 06 50.99  .67792 1.4341 117.4 22.3  577   9
2019 11 13 19  22 38 04.801   +38 07 00.25  .67811 1.4340 117.4 22.3  581   9
2019 11 13 20  22 38 05.267   +38 07 09.52  .67830 1.4340 117.4 22.3  585   9
2019 11 13 21  22 38 05.741   +38 07 18.77  .67849 1.4339 117.3 22.3  590   9
2019 11 13 22  22 38 06.223   +38 07 28.03  .67868 1.4339 117.3 22.3  594   9
2019 11 13 23  22 38 06.712   +38 07 37.29  .67887 1.4339 117.3 22.3  598   9
2019 11 14 00  22 38 07.209   +38 07 46.54  .67906 1.4338 117.3 22.3  602   9
2019 11 14 01  22 38 07.714   +38 07 55.79  .67925 1.4338 117.2 22.3  606   9
2019 11 14 02  22 38 08.226   +38 08 05.04  .67945 1.4337 117.2 22.3  610   9
2019 11 14 03  22 38 08.747   +38 08 14.29  .67964 1.4337 117.2 22.3  615   9
2019 11 14 04  22 38 09.275   +38 08 23.53  .67983 1.4336 117.2 22.3  619   9
2019 11 14 05  22 38 09.810   +38 08 32.78  .68002 1.4336 117.1 22.3  623   9
2019 11 14 06  22 38 10.354   +38 08 42.02  .68021 1.4336 117.1 22.3  627   9
2019 11 14 07  22 38 10.905   +38 08 51.26  .68040 1.4335 117.1 22.3  632   9
2019 11 14 08  22 38 11.464   +38 09 00.50  .68059 1.4335 117.1 22.4  636   9
2019 11 14 09  22 38 12.031   +38 09 09.73  .68078 1.4334 117.0 22.4  640   9
2019 11 14 10  22 38 12.605   +38 09 18.97  .68097 1.4334 117.0 22.4  644   9
2019 11 14 11  22 38 13.187   +38 09 28.20  .68117 1.4333 117.0 22.4  649   9
2019 11 14 12  22 38 13.777   +38 09 37.44  .68136 1.4333 117.0 22.4  653   9
2019 11 14 13  22 38 14.374   +38 09 46.67  .68155 1.4333 116.9 22.4  657   9
2019 11 14 14  22 38 14.979   +38 09 55.90  .68174 1.4332 116.9 22.4  662   9
2019 11 14 15  22 38 15.592   +38 10 05.12  .68193 1.4332 116.9 22.4  666   9
2019 11 14 16  22 38 16.212   +38 10 14.35  .68212 1.4331 116.9 22.4  670   9
2019 11 14 17  22 38 16.840   +38 10 23.58  .68232 1.4331 116.8 22.4  675   9
2019 11 14 18  22 38 17.476   +38 10 32.80  .68251 1.4331 116.8 22.4  679   9
2019 11 14 19  22 38 18.119   +38 10 42.03  .68270 1.4330 116.8 22.4  683   9
2019 11 14 20  22 38 18.771   +38 10 51.25  .68289 1.4330 116.8 22.4  688   9
2019 11 14 21  22 38 19.429   +38 11 00.47  .68308 1.4329 116.7 22.4  692   9
2019 11 14 22  22 38 20.096   +38 11 09.69  .68327 1.4329 116.7 22.4  697   9
2019 11 14 23  22 38 20.770   +38 11 18.91  .68347 1.4328 116.7 22.4  701   9
2019 11 15 00  22 38 21.451   +38 11 28.13  .68366 1.4328 116.7 22.4  705   9
2019 11 15 01  22 38 22.141   +38 11 37.35  .68385 1.4328 116.6 22.4  710   9
2019 11 15 02  22 38 22.838   +38 11 46.57  .68404 1.4327 116.6 22.4  714   9
2019 11 15 03  22 38 23.542   +38 11 55.78  .68423 1.4327 116.6 22.4  719   9
2019 11 15 04  22 38 24.255   +38 12 05.00  .68443 1.4326 116.6 22.4  723   9
2019 11 15 05  22 38 24.974   +38 12 14.21  .68462 1.4326 116.5 22.4  728   9
2019 11 15 06  22 38 25.702   +38 12 23.43  .68481 1.4326 116.5 22.4  732   9
2019 11 15 07  22 38 26.437   +38 12 32.64  .68500 1.4325 116.5 22.4  737   9
2019 11 15 08  22 38 27.180   +38 12 41.85  .68520 1.4325 116.5 22.4  741   9
2019 11 15 09  22 38 27.930   +38 12 51.06  .68539 1.4324 116.4 22.4  746   9